SCP
-0 -0 -0 -0 -0 -0 -0 -0 -0 -0 -0 -0 -0 -0 -0 -0 -0 0 0 0 0 0 0 0 0 0 0 0 0 0 0 0 0 0 0 0 0 0 0 0 -0 0 0 0 -0
0 0 -0 -0 -0 -0 -0 -0 -0 -0 -0 -0 -0 -0 -0 -0 -0 -0 0 0 0 0 0 0 0 0 0 0 0 -0 0 0 0 0 0 0 0 0 0 0 -0 0 0 0 -0
0 0 -0 -0 -0 -0 -0 -0 -0 -0 -0 -0 -0 -0 -0 -0 -0 0 0 0 0 0 0 0 0 0 0 0 0 -0 0 0 0 0 0 0 0 0 0 0 -0 0 -0 0 0
-0 0 0 -0 -0 -0 -0 -0 -0 -0 -0 -0 -0 -0 -0 0 0 0 0 0 0 0 0 0 0 0 0 0 0 0 -0 0 0 0 0 0 0 0 -0 0 0 0 0 -0 -0
-0 -0 0 0 -0 -0 -0 -0 -0 -0 -0 -0 -0 0 -0 -0 0 0 0 0 0 0 0 0 0 0 0 0 0 -0 0 0 0 0 0 0 0 0 -0 0 0 0 0 -0 0
-0 -0 0 0 -0 -0 -0 -0 -0 -0 -0 -0 0 -0 -0 -0 0 0 0 0 0 0 0 0 0 0 0 0 0 0 -0 0 0 0 0 0 0 0 0 0 -0 -0 0 0 -0
-0 -0 0 0 -0 -0 -0 -0 -0 -0 -0 0 0 0 -0 -0 0 0 0 0 0 0 0 0 0 0 0 0 0 0 -0 -0 -0 0 0 0 0 0 0 -0 -0 -0 -0 -0 -0
-0 -0 0 0 0 -0 -0 -0 -0 0 0 0 0 0 -0 0 -0 -0 0 0 0 0 0 0 0 0 0 0 0 0 0 0 0 0 0 0 0 0 0 0 0 -0 -0 -0 -0
-0 0 0 0 0 -0 -0 -0 -0 0 0 0 0 0 0 0 0 0 0 0 0 0 0 0 0 0 0 0 -0 -0 0 0 -0 -0 0 -0 0 0 0 0 0 0 -0 -0 -0
-0 -0 -0 -0 -0 -0 -0 -0 0 0 0 0 0 0 0 0 0 0 0 0 0 0 0 0 0 0 0 0 0 0 -0 -0 -0 -0 -0 -0 -0 -0 0 0 0 -0 -0 -0 -0
-0 -0 -0 -0 -0 -0 -0 0 0 0 0 0 0 0 0 0 0 0 0 0 0 0 0 0 0 0 0 0 0 0 -0 -0 -0 -0 -0 -0 -0 -0 0 0 0 -0 -0 -0 -0
-0 -0 -0 -0 -0 -0 0 0 0 0 -0 0 0 0 -0 0 0 0 0 0 0 0 0 0 0 0 0 0 0 0 -0 -0 -0 -0 -0 -0 -0 -0 -0 0 0 0 0 0 0
-0 -0 -0 -0 -0 0 0 0 0 0 -0 0 0 0 0 0 0 0 0 0 0 0 0 0 0 0 0 0 0 0 -0 -0 -0 -0 -0 -0 -0 0 0 0 0 0 0 0 0
-0 -0 -0 -0 0 0 0 0 0 0 0 0 0 0 0 0 0 -0 0 0 0 0 0 0 0 0 0 0 0 -0 0 -0 0 -0 -0 -0 0 0 0 0 0 0 0 0 0
0 0 -0 0 0 0 0 0 0 0 0 0 0 0 0 0 0 0 0 0 0 0 0 0 0 0 0 0 0 0 0 0 0 0 -0 0 0 0 0 0 -0 0 0 0 0
0 0 0 0 0 0 0 0 0 0 0 0 0 0 0 0 0 0 0 0 0 0 0 0 0 0 0 0 0 0 0 0 0 0 0 0 0 0 0 0 0 0 0 0 0
0 0 0 0 0 0 0 0 0 0 0 0 0 0 0 0 0 0 0 0 0 0 0 0 0 0 0 0 0 0 0 0 0 0 0 0 0 0 0 -0 0 0 0 0 0
0 0 0 0 0 0 0 0 0 0 0 0 0 0 0 0 0 0 0 0 0 0 0 0 0 0 0 0 0 0 0 0 0 0 0 0 0 0 -0 -0 0 0 0 0 0
0 0 0 0 0 0 0 0 0 0 0 0 0 0 0 0 0 0 0 0 0 0 0 0 0 0 0 0 0 0 0 0 0 0 0 0 0 0 -0 0 0 0 0 0 0
0 0 0 0 0 0 0 0 0 0 0 0 0 0 0 0 0 0 0 0 0 0 0 0 0 0 0 0 0 0 0 0 0 0 0 0 0 0 0 0 0 0 0 0 0
0 0 0 0 0 0 0 0 0 0 0 0 0 0 0 0 0 0 0 0 0 0 0 0 0 0 0 0 0 0 0 0 0 0 0 0 0 0 0 0 0 0 0 0 0
0 0 0 0 0 0 0 0 0 0 0 0 0 0 0 0 0 0 0 0 0 0 0 0 0 0 0 0 0 0 0 0 0 0 0 0 0 0 0 0 0 0 0 -0 -0
0 0 0 0 0 0 0 0 0 0 0 0 0 0 0 0 0 0 0 0 0 0 0 0 0 0 0 0 0 0 0 0 0 0 0 0 0 0 0 0 0 -0 -0 -0 -0
0 0 0 0 0 0 0 0 0 0 0 0 0 0 0 0 0 0 0 0 0 0 0 0 0 0 0 0 0 0 0 0 0 0 0 0 0 0 0 -0 -0 -0 -0 -0 0
0 0 0 0 0 0 0 0 0 0 0 0 0 0 0 0 0 0 0 0 0 0 0 0 0 0 0 0 0 0 0 0 0 0 0 0 0 0 0 -0 -0 -0 -0 -0 0
0 0 0 0 0 0 0 0 0 0 0 0 0 0 0 0 0 0 0 0 0 0 0 0 0 0 0 0 0 0 0 0 0 0 0 0 0 0 0 0 0 0 0 0 0
0 0 0 0 0 0 0 0 0 0 0 0 0 0 0 0 0 0 0 0 0 0 0 0 0 0 0 0 0 0 0 0 0 0 0 0 0 0 0 0 0 0 0 0 0
Wind_Speed_500mb
29 33 35 37 39 41 42 43 39 33 30 27 25 24 24 23 18 18 12 8 8 14 13 7 4 9 2 2 4 6 9 12 12 15 5 11 16 9 7 9 12 13 4 9 18
29 32 34 37 39 42 43 44 43 38 32 29 26 24 24 23 18 8 6 4 7 12 6 8 5 5 4 4 4 10 9 9 4 7 5 5 18 11 12 18 17 15 19 17 20
27 31 33 38 41 44 46 46 44 41 36 30 26 23 22 21 14 7 8 2 8 9 6 7 4 2 3 4 6 4 13 7 11 13 9 8 13 14 18 16 22 23 27 28 28
28 31 35 39 43 46 48 48 46 42 40 30 26 23 20 14 4 11 6 3 6 8 4 6 2 3 5 6 3 13 12 13 7 6 7 10 5 14 30 31 9 18 18 29 34
34 35 40 43 46 49 48 49 48 45 40 29 22 20 17 9 11 14 9 5 4 7 3 3 3 2 7 4 6 14 10 7 11 14 16 11 22 25 26 35 29 27 27 33 35
44 45 45 46 49 51 50 50 48 46 36 24 17 14 14 14 9 11 11 6 2 4 4 2 1 3 6 7 11 5 16 21 16 19 17 16 29 10 34 30 38 36 38 38 41
50 51 52 51 52 53 52 48 46 43 30 17 12 11 16 19 9 12 13 8 4 3 4 4 3 5 2 6 4 9 17 20 25 17 13 9 31 33 53 37 44 43 43 43 45
53 54 55 54 55 55 53 47 43 37 22 11 9 10 10 12 7 17 15 11 7 9 6 7 6 4 5 3 6 9 8 9 9 6 4 11 31 25 23 30 38 38 41 45 47
59 61 60 58 58 57 52 42 37 25 15 11 9 7 6 3 2 9 17 11 8 8 9 10 7 4 5 9 10 8 9 9 10 7 3 17 30 18 8 20 27 31 36 45 45
46 51 55 54 49 44 38 32 23 12 9 11 11 8 6 3 6 7 11 13 9 7 6 3 5 9 8 10 7 4 11 9 15 1 14 28 46 44 48 37 43 38 32 38 46
41 42 41 39 31 28 27 13 8 3 10 8 5 6 2 1 6 7 9 8 6 5 8 2 11 12 9 6 8 9 13 19 23 9 11 28 41 48 46 43 47 48 45 45 43
46 45 40 34 21 17 21 13 15 11 14 12 14 28 23 8 4 9 10 8 6 7 4 9 14 3 0 4 8 10 18 22 19 5 13 30 49 46 23 30 44 45 46 51 48
44 46 38 28 12 13 18 24 21 12 10 8 5 3 3 15 6 4 11 6 7 7 10 16 4 5 3 7 12 14 17 22 19 23 14 27 16 13 8 8 5 20 35 37 45
41 44 38 22 6 10 6 20 18 7 7 5 2 2 2 5 6 8 10 5 5 7 5 12 2 8 10 15 14 18 1 8 16 20 12 17 11 14 19 21 28 28 18 18 34
39 43 37 22 12 6 8 17 10 4 6 4 4 2 5 3 2 1 10 5 13 7 7 2 5 8 10 5 11 4 2 8 8 15 17 4 8 9 14 25 40 40 34 20 13
39 40 33 20 12 7 5 12 4 7 2 4 3 0 5 5 3 1 2 6 2 7 12 27 3 7 7 3 3 2 8 9 4 4 7 6 6 17 18 26 31 43 52 41 28
44 38 27 13 8 5 3 3 7 8 2 6 5 5 3 2 4 2 4 9 7 7 3 5 7 2 5 11 7 9 15 6 6 5 5 4 8 13 16 20 23 31 42 52 54
42 31 18 17 9 2 3 7 9 6 7 6 7 7 4 3 2 1 3 6 7 7 9 6 6 2 2 8 5 3 6 7 7 6 7 5 6 10 6 7 16 27 41 40 57
41 15 23 21 4 6 3 8 6 5 7 13 6 5 2 3 5 4 2 6 7 8 9 6 4 3 2 2 6 8 8 5 3 0 7 1 5 3 12 14 1 26 49 55 61
39 9 30 16 5 7 7 4 2 6 11 6 5 7 3 8 4 3 2 13 13 7 7 3 10 3 3 4 5 7 7 4 5 5 6 5 7 12 17 7 13 37 56 55 62
23 6 21 12 9 5 3 5 4 8 11 8 6 5 5 6 6 3 6 10 17 15 6 5 6 6 3 13 7 7 7 3 5 5 5 7 1 8 13 4 21 38 51 60 65
13 3 23 13 3 6 4 7 11 13 18 7 3 4 4 8 5 3 2 9 36 13 8 6 7 11 10 7 3 3 6 12 8 7 2 6 12 9 6 6 32 50 63 64 60
13 12 25 13 5 5 6 5 9 15 16 12 9 13 10 5 6 3 9 11 27 23 14 13 6 9 10 7 4 8 4 4 1 3 22 13 7 3 9 39 51 65 76 72 61
9 4 16 23 13 7 10 9 5 16 12 10 15 7 9 4 7 5 7 6 15 21 23 0 7 14 19 10 13 13 6 7 13 11 19 30 37 37 44 47 67 66 60 57 56
13 8 6 7 15 15 11 9 8 11 16 21 9 19 16 8 10 5 9 12 6 16 18 10 11 9 18 22 22 27 29 27 28 31 30 35 39 40 42 36 39 48 44 47 53
8 6 7 6 7 10 10 10 12 12 16 10 9 16 17 11 13 10 14 8 7 10 15 12 10 19 33 30 30 38 37 36 37 40 44 46 48 25 29 32 41 35 41 48 54
13 12 5 6 5 8 6 7 11 17 9 16 20 19 18 16 13 23 27 33 38 28 21 13 11 16 35 18 29 41 31 43 44 38 29 33 14 25 27 39 32 34 46 52 57
Wind_Direction_500mb
13 13 13 11 9 5 1 355 348 337 326 319 315 316 315 315 311 306 299 245 286 315 329 332 267 333 180 180 187 196 235 228 216 214 179 158 201 180 208 183 193 199 208 192 177
356 360 2 1 1 360 357 354 350 343 330 318 314 313 315 320 321 299 211 227 317 328 339 354 246 336 183 192 205 243 248 228 253 240 267 198 223 205 199 202 217 214 221 214 195
339 345 347 349 351 351 351 350 346 342 333 318 309 308 313 323 325 188 169 254 325 331 306 335 338 329 210 200 202 197 264 244 237 246 262 266 223 212 221 220 228 224 208 212 202
334 332 334 335 340 342 344 343 340 335 328 314 305 304 309 317 300 191 206 279 308 328 324 322 304 235 240 233 224 259 252 248 275 232 222 237 218 222 223 239 239 237 208 210 209
327 322 324 325 328 333 336 337 335 332 326 310 299 300 308 285 255 214 216 263 294 328 271 321 234 225 249 244 260 248 285 255 259 265 250 246 242 254 241 247 248 249 225 218 216
319 319 318 319 320 324 328 331 331 331 327 308 287 293 297 266 243 214 210 209 283 350 333 351 256 249 275 253 260 308 284 278 270 260 251 250 261 241 252 252 241 234 231 221 220
312 312 313 315 316 318 321 326 326 328 326 308 275 279 284 264 253 211 201 213 259 288 354 359 325 260 210 235 271 277 288 283 250 252 237 246 256 240 259 248 246 239 234 229 226
307 308 309 311 313 314 316 320 321 321 318 304 273 277 257 270 260 224 215 229 265 271 277 302 310 275 245 259 230 254 255 288 119 194 203 210 265 274 263 231 241 239 235 229 226
302 303 304 307 308 310 312 314 314 306 302 288 271 254 264 272 247 223 214 213 242 269 264 289 288 249 231 244 240 210 286 272 298 186 254 227 290 281 238 219 239 235 236 230 227
318 312 312 312 311 312 318 318 312 295 294 283 251 265 243 200 170 173 194 219 227 233 264 268 237 246 215 229 294 289 280 264 277 189 243 271 268 272 263 248 255 247 240 228 226
340 335 335 335 329 326 340 352 351 327 298 250 191 250 267 22 179 169 171 179 200 225 251 12 263 258 321 278 318 291 274 278 287 313 281 272 277 280 276 256 247 244 238 228 226
346 341 340 341 349 4 12 64 36 310 310 309 266 255 249 275 300 203 189 209 206 241 215 225 257 323 294 219 258 263 286 293 296 246 286 300 290 293 299 259 243 244 237 233 233
347 342 343 348 16 21 40 32 358 344 272 300 319 300 249 222 242 208 187 193 236 235 239 265 50 114 259 252 253 257 275 306 301 318 262 311 278 356 40 359 280 257 249 243 233
347 341 345 358 360 8 29 359 355 354 272 72 75 64 70 135 204 243 213 214 190 277 236 267 58 247 244 256 234 278 32 276 301 323 322 5 309 45 20 62 37 27 19 272 245
343 338 344 348 335 332 316 344 357 356 279 71 90 109 145 207 340 48 208 210 252 233 235 51 226 229 257 279 197 342 284 283 287 290 307 126 265 49 28 11 5 5 4 358 347
343 336 337 333 337 300 305 338 336 239 209 99 62 187 186 190 139 345 166 199 187 237 240 266 289 264 287 104 238 97 262 247 247 238 236 37 319 69 21 353 27 45 43 40 21
342 336 339 331 316 284 303 34 254 248 59 39 8 352 292 184 180 230 204 203 245 262 241 245 208 245 242 247 186 233 281 279 228 209 17 57 290 32 45 63 52 40 42 41 31
345 337 356 340 323 213 130 233 235 55 23 358 335 298 277 351 118 315 226 250 212 251 287 305 188 195 106 261 341 172 290 304 296 327 325 121 240 111 166 126 62 49 38 25 20
348 351 2 344 332 155 224 222 10 26 335 333 304 276 138 56 299 284 272 342 360 239 268 274 221 114 7 325 294 134 212 13 277 60 264 305 181 158 217 226 222 29 14 14 10
346 10 6 8 60 124 231 85 74 16 342 310 325 11 326 10 293 289 70 16 336 359 279 12 281 78 95 182 82 287 123 202 189 272 272 207 259 150 207 224 342 5 2 0 359
357 33 7 24 42 20 276 63 46 18 0 347 360 318 13 360 313 317 35 67 355 324 272 277 261 133 214 201 198 158 209 211 304 267 287 304 177 162 185 4 352 352 358 354 350
22 47 2 7 35 40 71 16 354 1 7 3 347 9 24 353 308 320 44 49 356 313 2 359 298 263 263 108 8 276 268 241 253 175 241 310 269 160 194 36 342 344 344 346 347
11 350 24 28 53 48 43 42 32 14 18 2 19 4 354 333 291 17 35 16 14 33 26 345 223 282 193 151 142 246 194 238 26 287 243 258 242 81 263 310 335 339 342 341 346
22 16 19 49 37 13 11 15 29 32 54 23 13 11 337 306 4 329 359 29 358 17 1 71 280 280 284 8 337 286 264 265 251 254 261 241 271 292 308 319 330 337 335 345 347
29 63 22 25 25 18 8 348 359 12 10 21 58 35 1 295 297 324 349 330 356 8 7 13 272 302 297 299 295 287 283 276 251 260 262 278 282 294 311 340 339 341 1 1 359
49 22 19 29 1 4 14 38 21 12 356 14 49 360 346 334 322 315 338 348 303 335 348 341 280 305 281 287 287 282 274 268 262 265 265 271 275 5 360 358 359 14 8 2 355
43 49 43 20 12 335 21 30 40 4 74 59 3 329 309 319 304 297 282 274 273 286 294 283 286 296 277 274 300 287 263 249 248 246 284 274 10 4 359 352 347 8 6 357 350
Wind_Speed_850mb
29 33 35 37 39 41 42 43 39 33 30 27 25 24 24 23 18 18 12 8 8 14 13 7 4 9 2 2 4 6 9 12 12 15 5 11 16 9 7 9 12 13 4 9 18
29 32 34 37 39 42 43 44 43 38 32 29 26 24 24 23 18 8 6 4 7 12 6 8 5 5 4 4 4 10 9 9 4 7 5 5 18 11 12 18 17 15 19 17 20
27 31 33 38 41 44 46 46 44 41 36 30 26 23 22 21 14 7 8 2 8 9 6 7 4 2 3 4 6 4 13 7 11 13 9 8 13 14 18 16 22 23 27 28 28
28 31 35 39 43 46 48 48 46 42 40 30 26 23 20 14 4 11 6 3 6 8 4 6 2 3 5 6 3 13 12 13 7 6 7 10 5 14 30 31 9 18 18 29 34
34 35 40 43 46 49 48 49 48 45 40 29 22 20 17 9 11 14 9 5 4 7 3 3 3 2 7 4 6 14 10 7 11 14 16 11 22 25 26 35 29 27 27 33 35
44 45 45 46 49 51 50 50 48 46 36 24 17 14 14 14 9 11 11 6 2 4 4 2 1 3 6 7 11 5 16 21 16 19 17 16 29 10 34 30 38 36 38 38 41
50 51 52 51 52 53 52 48 46 43 30 17 12 11 16 19 9 12 13 8 4 3 4 4 3 5 2 6 4 9 17 20 25 17 13 9 31 33 53 37 44 43 43 43 45
53 54 55 54 55 55 53 47 43 37 22 11 9 10 10 12 7 17 15 11 7 9 6 7 6 4 5 3 6 9 8 9 9 6 4 11 31 25 23 30 38 38 41 45 47
59 61 60 58 58 57 52 42 37 25 15 11 9 7 6 3 2 9 17 11 8 8 9 10 7 4 5 9 10 8 9 9 10 7 3 17 30 18 8 20 27 31 36 45 45
46 51 55 54 49 44 38 32 23 12 9 11 11 8 6 3 6 7 11 13 9 7 6 3 5 9 8 10 7 4 11 9 15 1 14 28 46 44 48 37 43 38 32 38 46
41 42 41 39 31 28 27 13 8 3 10 8 5 6 2 1 6 7 9 8 6 5 8 2 11 12 9 6 8 9 13 19 23 9 11 28 41 48 46 43 47 48 45 45 43
46 45 40 34 21 17 21 13 15 11 14 12 14 28 23 8 4 9 10 8 6 7 4 9 14 3 0 4 8 10 18 22 19 5 13 30 49 46 23 30 44 45 46 51 48
44 46 38 28 12 13 18 24 21 12 10 8 5 3 3 15 6 4 11 6 7 7 10 16 4 5 3 7 12 14 17 22 19 23 14 27 16 13 8 8 5 20 35 37 45
41 44 38 22 6 10 6 20 18 7 7 5 2 2 2 5 6 8 10 5 5 7 5 12 2 8 10 15 14 18 1 8 16 20 12 17 11 14 19 21 28 28 18 18 34
39 43 37 22 12 6 8 17 10 4 6 4 4 2 5 3 2 1 10 5 13 7 7 2 5 8 10 5 11 4 2 8 8 15 17 4 8 9 14 25 40 40 34 20 13
39 40 33 20 12 7 5 12 4 7 2 4 3 0 5 5 3 1 2 6 2 7 12 27 3 7 7 3 3 2 8 9 4 4 7 6 6 17 18 26 31 43 52 41 28
44 38 27 13 8 5 3 3 7 8 2 6 5 5 3 2 4 2 4 9 7 7 3 5 7 2 5 11 7 9 15 6 6 5 5 4 8 13 16 20 23 31 42 52 54
42 31 18 17 9 2 3 7 9 6 7 6 7 7 4 3 2 1 3 6 7 7 9 6 6 2 2 8 5 3 6 7 7 6 7 5 6 10 6 7 16 27 41 40 57
41 15 23 21 4 6 3 8 6 5 7 13 6 5 2 3 5 4 2 6 7 8 9 6 4 3 2 2 6 8 8 5 3 0 7 1 5 3 12 14 1 26 49 55 61
39 9 30 16 5 7 7 4 2 6 11 6 5 7 3 8 4 3 2 13 13 7 7 3 10 3 3 4 5 7 7 4 5 5 6 5 7 12 17 7 13 37 56 55 62
23 6 21 12 9 5 3 5 4 8 11 8 6 5 5 6 6 3 6 10 17 15 6 5 6 6 3 13 7 7 7 3 5 5 5 7 1 8 13 4 21 38 51 60 65
13 3 23 13 3 6 4 7 11 13 18 7 3 4 4 8 5 3 2 9 36 13 8 6 7 11 10 7 3 3 6 12 8 7 2 6 12 9 6 6 32 50 63 64 60
13 12 25 13 5 5 6 5 9 15 16 12 9 13 10 5 6 3 9 11 27 23 14 13 6 9 10 7 4 8 4 4 1 3 22 13 7 3 9 39 51 65 76 72 61
9 4 16 23 13 7 10 9 5 16 12 10 15 7 9 4 7 5 7 6 15 21 23 0 7 14 19 10 13 13 6 7 13 11 19 30 37 37 44 47 67 66 60 57 56
13 8 6 7 15 15 11 9 8 11 16 21 9 19 16 8 10 5 9 12 6 16 18 10 11 9 18 22 22 27 29 27 28 31 30 35 39 40 42 36 39 48 44 47 53
8 6 7 6 7 10 10 10 12 12 16 10 9 16 17 11 13 10 14 8 7 10 15 12 10 19 33 30 30 38 37 36 37 40 44 46 48 25 29 32 41 35 41 48 54
13 12 5 6 5 8 6 7 11 17 9 16 20 19 18 16 13 23 27 33 38 28 21 13 11 16 35 18 29 41 31 43 44 38 29 33 14 25 27 39 32 34 46 52 57
Wind_Direction_850mb
13 13 13 11 9 5 1 355 348 337 326 319 315 316 315 315 311 306 299 245 286 315 329 332 267 333 180 180 187 196 235 228 216 214 179 158 201 180 208 183 193 199 208 192 177
356 360 2 1 1 360 357 354 350 343 330 318 314 313 315 320 321 299 211 227 317 328 339 354 246 336 183 192 205 243 248 228 253 240 267 198 223 205 199 202 217 214 221 214 195
339 345 347 349 351 351 351 350 346 342 333 318 309 308 313 323 325 188 169 254 325 331 306 335 338 329 210 200 202 197 264 244 237 246 262 266 223 212 221 220 228 224 208 212 202
334 332 334 335 340 342 344 343 340 335 328 314 305 304 309 317 300 191 206 279 308 328 324 322 304 235 240 233 224 259 252 248 275 232 222 237 218 222 223 239 239 237 208 210 209
327 322 324 325 328 333 336 337 335 332 326 310 299 300 308 285 255 214 216 263 294 328 271 321 234 225 249 244 260 248 285 255 259 265 250 246 242 254 241 247 248 249 225 218 216
319 319 318 319 320 324 328 331 331 331 327 308 287 293 297 266 243 214 210 209 283 350 333 351 256 249 275 253 260 308 284 278 270 260 251 250 261 241 252 252 241 234 231 221 220
312 312 313 315 316 318 321 326 326 328 326 308 275 279 284 264 253 211 201 213 259 288 354 359 325 260 210 235 271 277 288 283 250 252 237 246 256 240 259 248 246 239 234 229 226
307 308 309 311 313 314 316 320 321 321 318 304 273 277 257 270 260 224 215 229 265 271 277 302 310 275 245 259 230 254 255 288 119 194 203 210 265 274 263 231 241 239 235 229 226
302 303 304 307 308 310 312 314 314 306 302 288 271 254 264 272 247 223 214 213 242 269 264 289 288 249 231 244 240 210 286 272 298 186 254 227 290 281 238 219 239 235 236 230 227
318 312 312 312 311 312 318 318 312 295 294 283 251 265 243 200 170 173 194 219 227 233 264 268 237 246 215 229 294 289 280 264 277 189 243 271 268 272 263 248 255 247 240 228 226
340 335 335 335 329 326 340 352 351 327 298 250 191 250 267 22 179 169 171 179 200 225 251 12 263 258 321 278 318 291 274 278 287 313 281 272 277 280 276 256 247 244 238 228 226
346 341 340 341 349 4 12 64 36 310 310 309 266 255 249 275 300 203 189 209 206 241 215 225 257 323 294 219 258 263 286 293 296 246 286 300 290 293 299 259 243 244 237 233 233
347 342 343 348 16 21 40 32 358 344 272 300 319 300 249 222 242 208 187 193 236 235 239 265 50 114 259 252 253 257 275 306 301 318 262 311 278 356 40 359 280 257 249 243 233
347 341 345 358 360 8 29 359 355 354 272 72 75 64 70 135 204 243 213 214 190 277 236 267 58 247 244 256 234 278 32 276 301 323 322 5 309 45 20 62 37 27 19 272 245
343 338 344 348 335 332 316 344 357 356 279 71 90 109 145 207 340 48 208 210 252 233 235 51 226 229 257 279 197 342 284 283 287 290 307 126 265 49 28 11 5 5 4 358 347
343 336 337 333 337 300 305 338 336 239 209 99 62 187 186 190 139 345 166 199 187 237 240 266 289 264 287 104 238 97 262 247 247 238 236 37 319 69 21 353 27 45 43 40 21
342 336 339 331 316 284 303 34 254 248 59 39 8 352 292 184 180 230 204 203 245 262 241 245 208 245 242 247 186 233 281 279 228 209 17 57 290 32 45 63 52 40 42 41 31
345 337 356 340 323 213 130 233 235 55 23 358 335 298 277 351 118 315 226 250 212 251 287 305 188 195 106 261 341 172 290 304 296 327 325 121 240 111 166 126 62 49 38 25 20
348 351 2 344 332 155 224 222 10 26 335 333 304 276 138 56 299 284 272 342 360 239 268 274 221 114 7 325 294 134 212 13 277 60 264 305 181 158 217 226 222 29 14 14 10
346 10 6 8 60 124 231 85 74 16 342 310 325 11 326 10 293 289 70 16 336 359 279 12 281 78 95 182 82 287 123 202 189 272 272 207 259 150 207 224 342 5 2 0 359
357 33 7 24 42 20 276 63 46 18 0 347 360 318 13 360 313 317 35 67 355 324 272 277 261 133 214 201 198 158 209 211 304 267 287 304 177 162 185 4 352 352 358 354 350
22 47 2 7 35 40 71 16 354 1 7 3 347 9 24 353 308 320 44 49 356 313 2 359 298 263 263 108 8 276 268 241 253 175 241 310 269 160 194 36 342 344 344 346 347
11 350 24 28 53 48 43 42 32 14 18 2 19 4 354 333 291 17 35 16 14 33 26 345 223 282 193 151 142 246 194 238 26 287 243 258 242 81 263 310 335 339 342 341 346
22 16 19 49 37 13 11 15 29 32 54 23 13 11 337 306 4 329 359 29 358 17 1 71 280 280 284 8 337 286 264 265 251 254 261 241 271 292 308 319 330 337 335 345 347
29 63 22 25 25 18 8 348 359 12 10 21 58 35 1 295 297 324 349 330 356 8 7 13 272 302 297 299 295 287 283 276 251 260 262 278 282 294 311 340 339 341 1 1 359
49 22 19 29 1 4 14 38 21 12 356 14 49 360 346 334 322 315 338 348 303 335 348 341 280 305 281 287 287 282 274 268 262 265 265 271 275 5 360 358 359 14 8 2 355
43 49 43 20 12 335 21 30 40 4 74 59 3 329 309 319 304 297 282 274 273 286 294 283 286 296 277 274 300 287 263 249 248 246 284 274 10 4 359 352 347 8 6 357 350